Zurück zum Katalog

CZ-6A DEB

AktivPO
NORAD 61280·DEBRIS·🇨🇳 China

Gestartet Aug 6, 2024 von Taiyuan Satellite Launch Center

Loading…

Nächste Überflüge (nächste 24 Stunden)

TLE

AktuellSource: Space-Track

Epoche: Sep 13, 2026, 23:30 UTC

1 61280U 24140SR  26256.97927986  .00001622  00000-0  88255-3 0  9998
2 61280  88.9806 265.0574 0119686 338.1683  21.4423 14.08271632105118

Verfolge CZ-6A DEB in Echtzeit mit AllMySat

Download on the App Store